sat.trackr.live / text

‹ back to catalog

IRIDE-MS1-EAGLET 2-6

NORAD 66700 · 2025-276AL

PAYLOAD ACTIVE UNKNOWN

§ Identity

Operator
Country
IT
Launch date
2025-11-28
Launch site
AFWTR
Launch vehicle
Mass (kg)
RCS (m²)

External: N2YO · Heavens-Above · Gunter

§ Orbital elements

Epoch: 2026-09-20T22:33:54.688320Z

Period
94.60 min
Inclination
97.4139°
Eccentricity
0.0002331
Mean motion
15.22158283 rev/d
Perigee alt
497.7 km
Apogee alt
500.9 km
Semi-major
6,877.5 km
B*
1.5075e-4
RAAN
336.4991°
Arg perigee
40.1610°
Mean anomaly
319.9798°
Rev number
4,500

§ Raw data

IRIDE-MS1-EAGLET 2-61 66700U 25276AL  26263.94021630  .00003388  00000+0  15075-3 0  99972 66700  97.4139 336.4991 0002331  40.1610 319.9798 15.22158283 45002

JSON: /api/v1/satellites/66700 · /tle

For live sub-satellite position, see the globe view (requires WebGL).

§ Visibility from observer

Set your observer location to see the next 7 days of passes ≥ 10°. The values pass through the URL so the page stays shareable.

No JS? Fill the form by hand. The geolocation button needs JavaScript.